OBJECT B, 66410

Orbit data source: Space-Track

You're viewing an Uncataloged Satellite

Recently launched and/or uncataloged satellites may have evolving metadata. Metadata may include but not limited to: Owner, Maufacturer, Bus, Motor, and Mission.

OBJECT B, 66410 is a satellite owned by CASIC (CN) in SSO that was launched on Sun, 09 Nov 2025 UTC via a LIJIAN-1 launch vehicle from the Jiuquan Satellite Launch Center, China (JSC). Unknown objects in Earth's orbit typically refer to objects detected orbiting the Earth but have not yet been identified or cataloged. These objects could be anything from previously untracked satellites, spent rocket stages, debris from satellite collisions, or even natural meteoroids temporarily captured by Earth's gravity.

Loading next visibility...
Identifier
66410, 2025-256B
Orbit
SSO
Country
Flag of CNCN / PRC
Related business
Manufacturer
CASIC
Mission
Operational Civil Imaging
Bus & Motor
CHUTIAN, Unknown motor
Mass
~150 kg wet, ~150 kg dry
Launch date (UTC)
2025-11-09 (7 months ago)
Launch vehicle
LIJIAN-1
Launch site
Jiuquan Satellite Launch Center, China (JSC)
Object type
Unknown
Shape & HBR
Box + 2 Pan, 1.1 m
Radar Cross Section
1.038 m², Large (>1 m²)

Expand to show TLE details & history
Last TLE update: 17 hours ago

TLE from 17 hours ago
0 OBJECT B
1 66410U 25256B   26171.18761324  .00000310  00000-0  91022-4 0  9998
2 66410  98.2531 237.4149 0013301 330.5333  29.5110 14.50198071 32330
Epoch: 2026-06-20T04:30Z
TLE epoch observation values (Epoch: 2026-06-20T04:30:09.783Z)
Latitude
-0.0001°
Longitude
-98.53168°
Altitude
719.751 km
Speed
7.5 km/s
True Right ascension
15h 49m 39s
True Declination
0° 00' 00"
Sunlit
Object was in full shadow at epoch
Visualization orbit readout
Latitude
Unknown
Longitude
Unknown
Altitude
Unknown
Speed
Unknown
Apparent Right ascension
Unknown
Apparent Declination
Unknown
Sunlit
N/A
Visualization observer readout
Local Sidereal Time
08:33:19
Azimuth
Unknown
Elevation
Unknown
Doppler factor
Unknown
Orbital elements
Apogee altitude
731.542 km
Perigee altitude
712.654 km
Semi-major axis
7,100.235 km
Eccentricity
0.00133
Inclination
98.2531°
RAAN
237.4149°
Arg. of periapsis
330.5333°
True anomaly
29.58619°
Mean anomaly
29.511°
Eccentric anomaly
29.54858°
Mean motion
3.62772 °/min
Orbital period
99.24 mins
BSTAR
0.000091022
Loading maneuver chart data...
Computing Atmospheric mass density...
Loading historical data...
Loading historical data...
Loading historical data...
Loading historical data...
Loading historical data...
Loading historical data...
Loading historical data...
Other satellites on launch #256 in the year 2025 (2025-11-09 UTC)

Documentation

Showing up to 5 results
|